Weather History for Laramie, WY

Change the Weather History Date:

Wednesday, March 27, 2013

  Actual Average Record
Temperature  
Mean Temperature 36 °F 33 °F  
Max Temperature 52 °F 46 °F 67 °F (1986)
Min Temperature 20 °F 21 °F -5 °F (1975)
Degree Days  
Heating Degree Days 29 32  
Month to date heating degree days 959 934  
Since 1 July heating degree days 6863 7110  
Cooling Degree Days 0 0  
Month to date cooling degree days 0 0  
Year to date cooling degree days 0 0  
Moisture  
Dew Point 21 °F    
Average Humidity 62    
Maximum Humidity 96    
Minimum Humidity 27    
Precipitation  
Precipitation 0.00 in 0.02 in 0.50 in (1961)
Month to date precipitation 0.20 0.49  
Year to date precipitation 0.77 1.10  
Sea Level Pressure  
Sea Level Pressure 29.99 in    
Wind  
Wind Speed 7 mph (WSW)    
Max Wind Speed 18 mph    
Max Gust Speed 24 mph    
Visibility 10 miles    
Events      
T = Trace of Precipitation, MM = Missing Value Source: NWS Daily Summary

Daily Weather History Graph

Daily Weather History Graph

Search for Another Location

Airport:

Trip Planner

Search our weather history database for the weather conditions in past years. The results will help you decide how hot, cold, wet, or windy it might be!

Date:

Astronomy

Mar. 27, 2013 Rise Set
Actual Time 6:53 AM MDT 7:22 PM MDT
Civil Twilight 6:26 AM MDT 7:50 PM MDT
Nautical Twilight 5:53 AM MDT 8:23 PM MDT
Astronomical Twilight 5:19 AM MDT 8:56 PM MDT
Moon 8:10 PM MDT (3/27) 6:45 AM MDT (3/27)
Length of Visible Light 13h 24m
Length of Day
12h 29m
Full, 100% of the Moon is Illuminated
Mar 27
Full
Apr 2
Last Quarter
Apr 10
New
Apr 18
First Quarter
Apr 25
Full

Hourly Weather History & Observations

Time (MDT) Temp. Windchill Dew Point Humidity Pressure Visibility Wind Dir Wind Speed Gust Speed Precip Events Conditions
12:53 AM 25.0 °F 16.3 °F 17.1 °F 72% 29.94 in 10.0 mi South 8.1 mph - N/A   Scattered Clouds
1:53 AM 27.0 °F 20.5 °F 21.0 °F 78% 29.95 in - North 5.8 mph - N/A   Overcast
2:53 AM 24.1 °F - 18.0 °F 77% 29.95 in - Calm Calm - N/A   Scattered Clouds
3:53 AM 23.0 °F 17.0 °F 19.0 °F 85% 29.96 in 10.0 mi WSW 4.6 mph - N/A   Partly Cloudy
4:53 AM 23.0 °F - 19.9 °F 88% 29.98 in 10.0 mi Calm Calm - N/A   Mostly Cloudy
5:53 AM 23.0 °F - 21.0 °F 92% 30.00 in 10.0 mi Calm Calm - N/A   Overcast
6:53 AM 21.0 °F 14.6 °F 18.0 °F 88% 30.02 in 10.0 mi SE 4.6 mph - N/A   Clear
7:53 AM 26.1 °F 20.5 °F 23.0 °F 88% 30.04 in - SE 4.6 mph - N/A   Mostly Cloudy
8:53 AM 30.9 °F 27.5 °F 25.0 °F 79% 30.04 in - South 3.5 mph - N/A   Mostly Cloudy
9:53 AM 37.9 °F 33.5 °F 26.1 °F 62% 30.00 in - WSW 5.8 mph - N/A   Clear
10:53 AM 41.0 °F 35.8 °F 23.0 °F 49% 29.98 in - West 8.1 mph - N/A   Partly Cloudy
11:53 AM 46.0 °F 40.2 °F 21.9 °F 39% 29.96 in 10.0 mi SW 12.7 mph 21.9 mph N/A   Overcast
12:53 PM 45.0 °F 38.9 °F 19.0 °F 36% 29.99 in 10.0 mi West 12.7 mph - N/A   Partly Cloudy
1:53 PM 46.0 °F 41.4 °F 18.0 °F 33% 29.95 in 10.0 mi NNW 9.2 mph 17.3 mph N/A   Mostly Cloudy
2:53 PM 46.9 °F - 19.0 °F 33% 29.96 in 10.0 mi NNW 4.6 mph - N/A   Overcast
3:24 PM 50.0 °F - 15.8 °F 26% 30.01 in 10.0 mi West 8.1 mph - N/A   Mostly Cloudy
3:53 PM 50.0 °F - 18.0 °F 28% 29.94 in 10.0 mi WNW 10.4 mph - N/A   Scattered Clouds
4:53 PM 50.0 °F - 19.0 °F 29% 29.95 in 10.0 mi NNW 11.5 mph - N/A   Partly Cloudy
5:53 PM 48.9 °F - 17.1 °F 28% 29.97 in 10.0 mi WSW 16.1 mph - N/A   Partly Cloudy
6:53 PM 42.1 °F 35.7 °F 21.0 °F 43% 30.04 in 10.0 mi WNW 11.5 mph - N/A   Clear
7:53 PM 39.0 °F 31.4 °F 21.9 °F 50% 30.03 in 10.0 mi WNW 12.7 mph - N/A   Mostly Cloudy
8:53 PM 37.9 °F 31.5 °F 24.1 °F 57% 30.03 in - WSW 9.2 mph - N/A   Overcast
9:53 PM 35.1 °F 30.1 °F 24.1 °F 64% 30.01 in 10.0 mi WSW 5.8 mph - N/A   Overcast
10:53 PM 32.0 °F 24.8 °F 25.0 °F 75% 30.02 in - South 8.1 mph - N/A   Overcast
11:53 PM 28.9 °F 21.1 °F 24.1 °F 82% 30.01 in 10.0 mi South 8.1 mph - N/A   Mostly Cloudy